Vorticity
8 8 8 7 6 5 5 6 7 8 7 8 8 7 7 6 6 7 7 8 9 9 9 7 8 11 14 10 5 8 13 14 16 28 10 8 16 12 10 10 6 7 15
10 9 7 8 7 5 5 5 7 8 9 9 9 8 6 6 6 5 4 4 3 4 5 8 10 11 11 7 10 16 17 9 6 5 4 8 14 11 6 8 5 12 9
10 8 8 6 6 7 7 5 6 9 8 7 5 4 6 8 5 2 1 3 4 3 5 6 7 6 8 11 12 10 8 11 20 16 10 15 10 11 17 26 24 11 1
8 4 2 2 2 4 8 8 6 7 7 6 6 7 7 5 5 1 2 2 4 3 3 5 5 8 9 8 9 14 12 12 12 14 17 15 10 12 11 7 14 17 25
6 2 2 2 2 1 8 10 6 5 5 6 6 6 7 6 6 6 7 7 5 3 5 5 6 8 10 10 9 9 11 10 10 10 15 14 15 15 11 13 3 3 7
5 3 1 3 2 4 7 9 6 5 6 5 4 8 3 4 5 5 6 7 7 7 7 7 7 7 8 9 10 10 10 11 12 12 14 14 15 15 17 15 13 14 9
5 5 4 3 6 5 7 8 6 4 6 4 2 7 1 3 4 4 4 4 5 5 6 5 4 3 7 9 9 9 9 10 11 9 10 12 15 17 12 18 20 15 15
5 5 4 4 1 -5 -9 -11 -2 11 7 4 3 6 4 4 3 4 5 6 6 6 7 5 5 8 10 8 7 11 11 10 8 6 -1 -2 2 4 10 13 12 17 24
7 6 4 -2 1 7 6 0 15 21 13 5 2 4 5 4 5 5 6 6 7 6 7 6 9 13 13 11 10 8 9 11 10 8 6 4 7 6 1 2 10 12 12
13 15 0 -2 5 -2 -2 25 12 12 10 3 0 2 3 7 6 7 6 6 8 8 8 10 13 13 12 11 11 10 10 10 11 12 12 13 12 11 13 9 8 11 10
12 10 -3 6 -4 0 9 7 13 11 6 2 4 7 9 6 6 8 8 8 8 8 12 12 11 11 11 11 10 10 11 12 12 12 12 14 15 14 14 12 14 8 12
10 6 3 4 -15 15 13 8 22 7 11 6 14 7 8 6 9 10 10 9 7 11 11 10 12 12 13 12 11 12 11 12 14 13 12 11 11 14 15 17 17 16 19
13 8 7 5 -9 12 17 16 6 11 12 9 7 6 8 11 12 11 9 7 9 9 10 12 14 15 14 13 13 12 13 13 13 13 14 13 12 11 13 17 13 10 10
11 -3 22 -9 11 15 12 9 10 11 4 7 10 13 13 12 9 8 7 8 10 12 15 16 16 15 15 15 15 15 14 13 12 13 14 14 13 14 15 15 14 12 10
17 12 9 14 23 18 7 9 2 0 9 12 14 11 10 9 9 8 10 12 14 16 17 15 15 15 15 15 14 12 11 12 11 12 14 15 15 16 14 12 13 9 6
16 14 28 22 12 11 4 1 7 12 18 14 10 8 7 8 9 12 13 15 17 16 14 13 14 14 12 12 12 11 11 11 12 14 16 16 16 14 9 10 13 12 11
27 28 16 6 10 3 6 12 16 14 9 8 7 7 8 11 13 14 16 16 14 14 13 13 12 12 12 11 10 10 10 11 12 13 12 11 10 10 9 6 7 7 8
15 4 2 6 8 10 13 10 7 8 7 8 9 10 11 13 14 15 15 15 14 13 13 12 12 11 10 10 9 10 11 12 13 14 13 9 9 8 9 10 11 11 12
4 7 9 9 8 10 11 9 7 6 8 9 10 13 12 14 15 15 14 13 12 12 11 10 10 10 10 9 10 12 15 14 12 10 10 11 13 14 13 13 11 10 10
7 10 5 5 10 13 9 8 4 7 6 9 13 11 14 16 14 13 13 11 11 9 9 10 11 11 12 12 12 12 11 10 13 13 14 15 13 10 10 9 9 9 9
10 1 11 15 14 11 9 8 8 8 10 11 11 13 15 14 12 11 10 10 10 10 11 11 10 10 11 12 13 13 14 15 14 13 12 11 10 9 8 8 8 9 10
7 10 11 12 11 10 7 4 9 12 11 11 13 14 14 12 11 10 11 11 11 10 9 10 11 13 14 14 14 14 14 13 11 11 10 10 9 9 8 9 9 9 9
12 9 8 9 9 7 6 8 10 11 12 13 14 14 12 11 11 11 10 10 11 11 12 13 14 14 14 15 14 12 10 10 10 9 9 9 9 10 9 9 9 9 9
6 5 5 6 7 7 8 10 12 12 14 14 14 12 11 10 10 10 10 11 12 13 14 14 13 13 13 11 10 11 10 9 9 9 9 9 9 10 9 9 9 8 8
6 7 8 9 10 11 12 14 14 14 15 14 13 12 10 10 10 10 11 12 14 14 13 13 11 11 12 11 10 10 9 9 9 9 9 9 10 10 10 9 9 9 9
11 12 13 15 15 16 16 16 14 12 12 12 12 11 11 11 11 11 12 14 14 13 12 12 12 12 12 11 10 9 9 8 9 10 9 11 10 10 9 9 9 9 9
Height
3104 3104 3104 3102 3101 3100 3100 3097 3095 3093 3091 3089 3087 3084 3081 3079 3077 3076 3075 3074 3072 3071 3069 3067 3066 3065 3063 3062 3062 3061 3061 3061 3060 3062 3063 3063 3066 3068 3069 3071 3073 3076 3078
3100 3100 3100 3099 3099 3098 3096 3095 3093 3090 3088 3086 3084 3082 3079 3077 3075 3074 3071 3070 3068 3067 3065 3064 3062 3060 3059 3057 3056 3055 3054 3053 3051 3052 3053 3053 3057 3058 3059 3062 3064 3066 3069
3098 3098 3098 3097 3096 3095 3093 3092 3090 3087 3085 3083 3081 3079 3077 3075 3074 3072 3070 3068 3066 3064 3062 3060 3058 3055 3053 3051 3050 3048 3047 3046 3044 3043 3044 3044 3045 3046 3050 3054 3055 3056 3056
3095 3095 3095 3095 3093 3091 3090 3088 3086 3084 3082 3080 3078 3077 3074 3072 3070 3068 3065 3063 3061 3058 3056 3054 3052 3049 3047 3045 3043 3041 3039 3038 3038 3036 3035 3034 3034 3036 3039 3044 3044 3045 3046
3093 3093 3091 3091 3090 3089 3087 3084 3082 3080 3078 3076 3074 3072 3070 3068 3065 3062 3060 3057 3055 3052 3050 3047 3046 3043 3041 3038 3036 3034 3032 3031 3030 3030 3028 3026 3025 3026 3027 3031 3033 3035 3036
3088 3088 3087 3085 3084 3082 3081 3080 3077 3075 3074 3071 3069 3067 3065 3063 3060 3057 3054 3052 3048 3046 3043 3040 3038 3036 3033 3032 3030 3028 3025 3024 3023 3022 3021 3020 3018 3017 3017 3018 3022 3024 3026
3086 3084 3083 3082 3080 3077 3075 3073 3072 3070 3068 3065 3063 3061 3058 3056 3053 3050 3047 3043 3040 3038 3035 3033 3030 3027 3025 3023 3022 3020 3019 3017 3016 3014 3014 3013 3012 3010 3010 3010 3012 3014 3013
3080 3079 3078 3076 3075 3073 3071 3068 3066 3064 3061 3059 3056 3054 3051 3048 3045 3042 3039 3036 3033 3030 3027 3024 3022 3021 3018 3016 3013 3012 3011 3009 3008 3007 3007 3006 3005 3004 3003 3003 3004 3005 3004
3075 3074 3073 3072 3070 3067 3064 3062 3059 3057 3054 3052 3049 3047 3044 3041 3038 3036 3032 3029 3026 3022 3020 3017 3014 3012 3010 3008 3006 3003 3001 3000 3000 2999 2998 2997 2997 2997 2996 2995 2995 2996 2996
3069 3068 3068 3066 3064 3061 3057 3054 3051 3049 3047 3044 3041 3039 3035 3032 3029 3026 3023 3019 3016 3013 3011 3008 3004 3002 3000 2998 2996 2994 2992 2991 2990 2989 2988 2987 2987 2986 2986 2985 2985 2986 2986
3064 3062 3060 3059 3056 3052 3049 3046 3042 3039 3038 3036 3034 3030 3026 3022 3019 3015 3012 3010 3007 3004 3001 2998 2995 2992 2990 2988 2986 2985 2983 2982 2981 2979 2978 2977 2977 2976 2976 2975 2974 2975 2975
3058 3056 3053 3050 3046 3043 3040 3037 3034 3032 3029 3027 3024 3021 3017 3013 3010 3006 3004 3001 2998 2994 2991 2988 2985 2982 2980 2978 2976 2974 2973 2971 2971 2970 2968 2967 2967 2966 2966 2965 2964 2965 2966
3049 3047 3044 3040 3037 3033 3030 3028 3026 3024 3021 3018 3015 3011 3007 3004 3001 2998 2994 2991 2987 2984 2980 2978 2975 2972 2969 2968 2966 2964 2963 2962 2961 2961 2960 2959 2958 2957 2957 2956 2955 2955 2955
3039 3037 3033 3031 3027 3024 3021 3019 3017 3015 3012 3008 3005 3001 2998 2995 2991 2988 2985 2981 2977 2974 2970 2967 2964 2962 2960 2958 2957 2955 2954 2953 2952 2952 2951 2950 2949 2948 2948 2947 2947 2947 2947
3029 3027 3023 3020 3017 3014 3012 3009 3008 3005 3001 2998 2994 2991 2988 2986 2982 2978 2974 2970 2967 2964 2960 2957 2955 2953 2951 2950 2949 2947 2947 2945 2944 2944 2943 2943 2941 2941 2940 2939 2939 2940 2941
3020 3016 3014 3010 3008 3004 3001 2999 2997 2994 2992 2989 2986 2982 2979 2975 2971 2968 2964 2960 2957 2954 2951 2949 2947 2945 2943 2943 2942 2940 2939 2939 2938 2937 2936 2935 2934 2933 2933 2932 2933 2934 2934
3011 3008 3006 3003 3000 2996 2993 2990 2988 2985 2983 2980 2977 2973 2969 2965 2961 2957 2954 2950 2948 2946 2944 2942 2940 2938 2936 2935 2934 2933 2932 2931 2931 2929 2928 2928 2927 2926 2926 2926 2927 2927 2928
3004 3001 2999 2996 2993 2989 2985 2982 2980 2977 2975 2972 2967 2963 2958 2954 2950 2947 2944 2942 2940 2938 2936 2935 2933 2931 2929 2928 2927 2926 2925 2924 2923 2922 2921 2922 2922 2921 2922 2922 2922 2922 2922
2997 2993 2990 2988 2985 2981 2977 2974 2972 2970 2966 2962 2957 2953 2949 2945 2941 2938 2936 2934 2932 2931 2929 2927 2925 2924 2922 2920 2919 2918 2918 2916 2915 2915 2915 2916 2916 2915 2915 2916 2915 2915 2915
2991 2986 2982 2979 2975 2972 2970 2967 2964 2961 2957 2952 2947 2942 2939 2936 2932 2930 2929 2927 2925 2923 2921 2919 2917 2916 2914 2913 2912 2911 2911 2910 2910 2909 2909 2909 2910 2910 2910 2910 2909 2909 2909
2984 2979 2974 2970 2966 2964 2961 2958 2954 2951 2947 2940 2936 2933 2930 2927 2924 2922 2921 2919 2917 2915 2912 2911 2909 2908 2907 2906 2905 2904 2904 2904 2904 2904 2904 2904 2905 2904 2904 2904 2904 2904 2904
2975 2971 2965 2962 2959 2956 2952 2948 2944 2939 2935 2931 2927 2924 2921 2919 2916 2914 2912 2910 2908 2906 2904 2903 2901 2900 2899 2898 2898 2897 2898 2898 2898 2899 2899 2899 2900 2899 2899 2898 2897 2897 2897
2967 2963 2958 2954 2950 2946 2941 2937 2931 2928 2924 2921 2918 2915 2912 2910 2907 2905 2903 2902 2900 2897 2896 2894 2893 2892 2891 2891 2891 2891 2891 2892 2892 2893 2893 2893 2893 2893 2892 2892 2892 2891 2891
2959 2954 2949 2945 2940 2934 2929 2925 2921 2917 2914 2911 2908 2905 2902 2899 2897 2896 2894 2892 2890 2888 2887 2886 2885 2884 2884 2884 2884 2885 2885 2886 2886 2886 2887 2887 2887 2887 2886 2886 2886 2885 2885
2949 2944 2938 2933 2928 2922 2918 2913 2909 2905 2903 2900 2898 2894 2891 2890 2887 2886 2884 2882 2881 2879 2878 2877 2876 2876 2876 2877 2877 2878 2879 2879 2880 2880 2880 2880 2880 2881 2881 2880 2880 2879 2879
2937 2931 2926 2921 2915 2910 2906 2902 2897 2894 2892 2890 2887 2884 2881 2879 2877 2875 2874 2872 2871 2869 2869 2869 2868 2869 2869 2870 2870 2871 2872 2872 2872 2874 2874 2874 2874 2874 2874 2874 2874 2873 2873